Regional Weather Roundup
Issued by NWS Goodland, KS

Home | Current Version | Previous Version | Graphics & Text | Print | Product List | Glossary On
Versions: 1 2 3 4 5 6 7 8 9 10 11 12 13 14 15 16 17 18 19 20 21 22 23 24 25 26 27 28 29 30 31 32 33 34 35 36 37 38 39 40 41 42 43 44 45 46 47 48 49 50
912
ASUS43 KGLD 271708
RWRGLD

GOODLAND FORECAST AREA HOURLY WEATHER ROUNDUP
NATIONAL WEATHER SERVICE GOODLAND KS
1100 AM MDT TUE SEP 27 2016

...OFFICIAL OBSERVATIONS...

CITY           SKY/WX    TMP DP  RH WIND       PRES   REMARKS
GOODLAND KS    SUNNY     76  39  26 SW6       30.16F
HILL CITY KS   FAIR      77  49  37 NW6       30.10F
IMPERIAL NEB   MOSUNNY   72  43  35 SW9       30.14F
MCCOOK NEB     SUNNY     70  44  39 W7        30.12F
AKRON CO       SUNNY     71  37  28 W9        30.21F
BURLINGTON CO  SUNNY     76  34  21 W9        30.19F
LIMON CO       SUNNY     75  30  19 VRB3      30.24F
$$

...UNOFFICIAL OBSERVATIONS...

CITY           SKY/WX    TMP DP  RH WIND       PRES   REMARKS
COLBY KS       SUNNY     77  46  33 W3        30.16F
LENORA KS        N/A     73  32  22 MISG        N/A
NORTON KS      SUNNY     75  36  23 W3        30.09F
SHARON SPRINGS   N/A     78  41  26 CALM        N/A
KIT CARSON CO    N/A     74  39  27 MISG        N/A
$$




USA.gov is the U.S. government's official web portal to all federal, state and local government web resources and services.